Weather History for Staunton, VA

Change the Weather History Date:

Wednesday, October 17, 2012

  Actual Average Record
Temperature  
Mean Temperature 52 °F -  
Max Temperature 70 °F 66 °F 82 °F (1996)
Min Temperature 34 °F 42 °F 34 °F (2012)
Degree Days  
Heating Degree Days 13    
Growing Degree Days 2 (Base 50)    
Moisture  
Dew Point 41 °F    
Average Humidity 69    
Maximum Humidity 94    
Minimum Humidity 34    
Precipitation  
Precipitation 0.00 in - - ()
Sea Level Pressure  
Sea Level Pressure 29.96 in    
Wind  
Wind Speed 1 mph (South)    
Max Wind Speed 10 mph    
Max Gust Speed -    
Visibility 9 miles    
Events      
Averages and records for this station are not official NWS values.
T = Trace of Precipitation, MM = Missing Value Source: NWS Daily Summary

Daily Weather History Graph

Daily Weather History Graph

Search for Another Location

Airport:

Trip Planner

Search our weather history database for the weather conditions in past years. The results will help you decide how hot, cold, wet, or windy it might be!

Date:

Astronomy

Oct. 17, 2012 Rise Set
Actual Time 7:26 AM EDT 6:34 PM EDT
Civil Twilight 7:00 AM EDT 7:00 PM EDT
Nautical Twilight 6:29 AM EDT 7:31 PM EDT
Astronomical Twilight 5:58 AM EDT 8:02 PM EDT
Moon 9:56 AM EDT (10/17) 8:11 PM EDT (10/17)
Length of Visible Light 12h 00m
Length of Day
11h 07m
Waxing Crescent, 7% of the Moon is Illuminated
Oct 17
Waxing Crescent
Oct 21
First Quarter
Oct 29
Full
Nov 6
Last Quarter
Nov 13
New

Hourly Weather History & Observations

Time (EDT) Temp. Dew Point Humidity Pressure Visibility Wind Dir Wind Speed Gust Speed Precip Events Conditions
12:15 AM 43.9 °F 38.7 °F 82% 29.96 in 10.0 mi Calm Calm - N/A   Clear
12:35 AM 42.4 °F 38.3 °F 85% 29.96 in 10.0 mi Calm Calm - N/A   Clear
12:55 AM 43.2 °F 39.0 °F 85% 29.96 in 10.0 mi Calm Calm - N/A   Clear
1:15 AM 43.3 °F 39.4 °F 86% 29.96 in 10.0 mi Calm Calm - N/A   Clear
1:35 AM 42.3 °F 39.0 °F 88% 29.96 in 10.0 mi Calm Calm - N/A   Clear
1:55 AM 41.4 °F 38.3 °F 89% 29.97 in 10.0 mi Calm Calm - N/A   Clear
2:15 AM 41.9 °F 38.5 °F 88% 29.97 in 10.0 mi Calm Calm - N/A   Clear
2:35 AM 41.7 °F 38.3 °F 88% 29.97 in 10.0 mi Calm Calm - N/A   Clear
2:55 AM 40.8 °F 37.2 °F 87% 29.97 in 10.0 mi Calm Calm - N/A   Clear
3:15 AM 40.1 °F 37.4 °F 90% 29.97 in 10.0 mi Calm Calm - N/A   Clear
3:35 AM 40.1 °F 37.4 °F 90% 29.96 in 10.0 mi Calm Calm - N/A   Clear
3:55 AM 39.2 °F 36.9 °F 91% 29.96 in 7.0 mi Calm Calm - N/A   Clear
4:15 AM 38.1 °F 35.6 °F 91% 29.96 in 7.0 mi Calm Calm - N/A   Clear
4:35 AM 39.4 °F 37.4 °F 93% 29.96 in 7.0 mi Calm Calm - N/A   Clear
4:55 AM 38.5 °F 36.5 °F 93% 29.96 in 7.0 mi Calm Calm - N/A   Clear
5:15 AM 39.0 °F 36.1 °F 89% 29.97 in 10.0 mi Calm Calm - N/A   Clear
5:35 AM 38.8 °F 36.7 °F 92% 29.98 in 10.0 mi Calm Calm - N/A   Clear
5:55 AM 38.7 °F 36.0 °F 90% 29.98 in 7.0 mi Calm Calm - N/A   Clear
6:15 AM 37.0 °F 34.7 °F 91% 29.99 in 7.0 mi Calm Calm - N/A   Clear
6:35 AM 37.6 °F 35.6 °F 93% 29.99 in 10.0 mi Calm Calm - N/A   Clear
6:55 AM 37.9 °F 36.0 °F 93% 30.00 in 2.5 mi Calm Calm - N/A   Scattered Clouds
7:15 AM 36.3 °F 34.0 °F 91% 30.00 in 7.0 mi Calm Calm - N/A   Scattered Clouds
7:35 AM 36.5 °F 34.5 °F 93% 30.00 in 4.0 mi Calm Calm - N/A   Scattered Clouds
7:55 AM 35.8 °F 33.8 °F 92% 30.01 in 3.0 mi Calm Calm - N/A   Scattered Clouds
8:15 AM 34.7 °F 32.9 °F 93% 30.01 in 2.0 mi Calm Calm - N/A   Mostly Cloudy
8:35 AM 36.3 °F 34.5 °F 93% 30.01 in 5.0 mi Calm Calm - N/A   Scattered Clouds
8:55 AM 39.6 °F 37.9 °F 94% 30.01 in 5.0 mi Calm Calm - N/A   Clear
9:15 AM 41.7 °F 39.6 °F 92% 30.02 in 7.0 mi Calm Calm - N/A   Clear
9:35 AM 44.6 °F 41.7 °F 90% 30.02 in 10.0 mi Calm Calm - N/A   Clear
9:55 AM 45.9 °F 42.1 °F 87% 30.03 in 10.0 mi Calm Calm - N/A   Clear
10:15 AM 48.4 °F 42.6 °F 80% 30.02 in 10.0 mi Calm Calm - N/A   Clear
10:35 AM 50.2 °F 42.4 °F 75% 30.02 in 10.0 mi Calm Calm - N/A   Clear
10:55 AM 52.0 °F 42.3 °F 69% 30.01 in 7.0 mi Calm Calm - N/A   Clear
11:15 AM 54.1 °F 42.8 °F 66% 30.00 in 10.0 mi Calm Calm - N/A   Clear
11:35 AM 55.8 °F 43.3 °F 63% 30.00 in 10.0 mi Calm Calm - N/A   Clear
11:55 AM 57.7 °F 43.7 °F 60% 29.99 in 10.0 mi Calm Calm - N/A   Clear
12:15 PM 61.2 °F 43.2 °F 52% 29.98 in 10.0 mi SE 4.6 mph - N/A   Clear
12:55 PM 64.0 °F 42.6 °F 46% 29.97 in 7.0 mi SE 5.8 mph - N/A   Clear
1:15 PM 65.5 °F 41.7 °F 42% 29.96 in 7.0 mi SW 5.8 mph - N/A   Clear
1:35 PM 66.9 °F 42.1 °F 40% 29.95 in 10.0 mi South 4.6 mph - N/A   Clear
1:55 PM 67.5 °F 41.4 °F 39% 29.94 in 10.0 mi South 3.5 mph - N/A   Clear
2:15 PM 69.6 °F 41.2 °F 36% 29.93 in 10.0 mi SSE 6.9 mph - N/A   Clear
2:35 PM 70.2 °F 40.6 °F 34% 29.93 in 10.0 mi South 6.9 mph - N/A   Clear
2:55 PM 70.2 °F 41.0 °F 35% 29.92 in 10.0 mi SSE 8.1 mph - N/A   Clear
3:15 PM 70.2 °F 41.0 °F 35% 29.92 in 10.0 mi South 9.2 mph - N/A   Clear
3:35 PM 70.2 °F 40.8 °F 34% 29.91 in 10.0 mi SSE 8.1 mph - N/A   Clear
3:55 PM 70.0 °F 40.5 °F 34% 29.91 in 10.0 mi SE 8.1 mph - N/A   Clear
4:15 PM 70.5 °F 40.8 °F 34% 29.91 in 10.0 mi South 6.9 mph - N/A   Clear
4:35 PM 70.5 °F 40.6 °F 34% 29.90 in 10.0 mi SE 8.1 mph - N/A   Clear
4:55 PM 69.8 °F 40.3 °F 34% 29.91 in 10.0 mi South 10.4 mph - N/A   Clear
5:15 PM 69.1 °F 40.3 °F 35% 29.91 in 10.0 mi SSE 9.2 mph - N/A   Clear
5:35 PM 68.0 °F 43.0 °F 40% 29.91 in 10.0 mi SSE 8.1 mph - N/A   Clear
5:55 PM 67.1 °F 43.5 °F 42% 29.92 in 10.0 mi South 5.8 mph - N/A   Clear
6:15 PM 65.7 °F 43.9 °F 45% 29.92 in 10.0 mi SSE 5.8 mph - N/A   Clear
6:35 PM 64.2 °F 43.9 °F 48% 29.92 in 10.0 mi SSE 5.8 mph - N/A   Clear
6:55 PM 63.0 °F 44.4 °F 51% 29.93 in 10.0 mi South 4.6 mph - N/A   Clear
7:15 PM 61.5 °F 44.6 °F 54% 29.93 in 10.0 mi South 4.6 mph - N/A   Clear
7:35 PM 60.6 °F 44.6 °F 56% 29.94 in 10.0 mi South 3.5 mph - N/A   Clear
7:55 PM 59.4 °F 44.6 °F 58% 29.94 in 10.0 mi Calm Calm - N/A   Clear
8:15 PM 59.9 °F 44.8 °F 57% 29.94 in 10.0 mi Calm Calm - N/A   Clear
8:35 PM 57.9 °F 44.8 °F 62% 29.94 in 10.0 mi South 3.5 mph - N/A   Clear
8:55 PM 58.1 °F 45.3 °F 62% 29.94 in 10.0 mi South 3.5 mph - N/A   Clear
9:15 PM 54.5 °F 44.6 °F 69% 29.94 in 10.0 mi SW 3.5 mph - N/A   Clear
9:35 PM 53.2 °F 44.6 °F 72% 29.93 in 10.0 mi South 3.5 mph - N/A   Clear
9:55 PM 53.8 °F 44.6 °F 71% 29.94 in 10.0 mi Calm Calm - N/A   Clear
10:15 PM 52.3 °F 44.6 °F 75% 29.94 in 10.0 mi SW 3.5 mph - N/A   Clear
10:35 PM 52.7 °F 44.8 °F 74% 29.93 in 10.0 mi Calm Calm - N/A   Clear
10:55 PM 51.8 °F 44.8 °F 77% 29.94 in 10.0 mi Calm Calm - N/A   Clear
11:15 PM 52.3 °F 45.0 °F 76% 29.93 in 10.0 mi South 3.5 mph - N/A   Clear
11:35 PM 53.8 °F 45.1 °F 73% 29.93 in 10.0 mi South 5.8 mph - N/A   Clear
11:55 PM 53.8 °F 44.6 °F 71% 29.92 in 10.0 mi South 3.5 mph - N/A   Clear